Location: Unspecified
(40.7945°N, 0.0000°E)
Time: 15:20:30
(UTC+00:00)

SR - All Passes

Search period start: 25 January 2021 00:00
Search period end: 04 February 2021 00:00
Orbit: 575 x 880 km, 66.7° (Epoch: 25 January)

Date Brightness Start Highest point End Pass type
(mag) Time Alt. Az. Time Alt. Az. Time Alt. Az.
25 Jan - 02:55:08 10° SE 02:57:59 16° ESE 03:00:59 10° ENE visible
25 Jan - 04:34:44 10° SW 04:39:23 58° WNW 04:44:32 10° NNE visible
25 Jan - 06:21:13 10° NW 06:22:45 11° NW 06:24:18 10° NNW visible
25 Jan - 11:34:03 10° N 11:38:09 19° NE 11:42:18 10° E daylight
25 Jan - 13:15:06 10° NNW 13:20:58 87° WSW 13:26:54 10° SSE daylight
25 Jan - 14:59:45 10° WNW 15:02:16 13° WSW 15:04:47 10° SW daylight
26 Jan - 03:44:58 10° SSW 03:49:37 69° ESE 03:54:46 10° NE visible
26 Jan - 05:28:51 10° W 05:32:19 19° NW 05:36:00 10° N visible
26 Jan - 10:45:35 10° NNE 10:47:42 12° NE 10:49:52 10° ENE daylight
26 Jan - 12:25:25 10° NNW 12:31:08 52° NE 12:36:54 10° SE daylight
26 Jan - 14:08:10 10° NW 14:12:56 26° WSW 14:17:42 10° SSW daylight
27 Jan - 02:55:58 10° S 03:00:06 32° ESE 03:04:36 10° NE visible
27 Jan - 04:37:46 10° WSW 04:42:06 32° NW 04:46:50 10° NNE visible
27 Jan - 11:36:00 10° NNW 11:41:05 30° NE 11:46:16 10° ESE daylight
27 Jan - 13:17:47 10° NW 13:23:26 49° WSW 13:29:05 10° S daylight
28 Jan - 02:08:08 10° SE 02:10:47 15° ESE 02:13:34 10° ENE night (unlit)
28 Jan - 03:47:25 10° SW 03:52:07 63° WNW 03:57:20 10° NNE visible
28 Jan - 05:33:30 10° WNW 05:35:25 12° NW 05:37:23 10° NNW visible
28 Jan - 10:46:53 10° N 10:50:51 19° NE 10:54:53 10° E daylight
28 Jan - 12:27:51 10° NNW 12:33:45 89° ENE 12:39:40 10° SSE daylight
28 Jan - 14:12:12 10° WNW 14:15:04 14° WSW 14:17:58 10° SW daylight
29 Jan - 02:57:44 10° SSW 03:02:23 64° ESE 03:07:31 10° NE visible
29 Jan - 04:41:23 10° W 04:45:01 20° NW 04:48:52 10° N visible
29 Jan - 09:58:33 10° NNE 10:00:24 11° NE 10:02:15 10° NE daylight
29 Jan - 11:38:12 10° NNW 11:43:53 50° NE 11:49:36 10° SE daylight
29 Jan - 13:20:51 10° NW 13:25:44 28° WSW 13:30:37 10° SSW daylight
30 Jan - 02:08:48 10° S 02:12:52 30° ESE 02:17:18 10° NE night (unlit)
30 Jan - 03:50:24 10° WSW 03:54:49 35° NW 03:59:39 10° NNE visible
30 Jan - 10:48:48 10° N 10:53:50 29° NE 10:58:54 10° ESE daylight
30 Jan - 12:30:31 10° NW 12:36:13 53° WSW 12:41:55 10° S daylight
31 Jan - 01:21:08 10° SE 01:23:35 14° ESE 01:26:07 10° ENE night (unlit)
31 Jan - 03:00:07 10° SW 03:04:51 68° WNW 03:10:07 10° NNE visible
31 Jan - 04:45:52 10° WNW 04:48:06 13° NW 04:50:23 10° N visible
31 Jan - 09:59:43 10° N 10:03:34 18° NE 10:07:27 10° E daylight
31 Jan - 11:40:37 10° NNW 11:46:31 84° ENE 11:52:26 10° SSE daylight
31 Jan - 13:24:42 10° WNW 13:27:54 15° WSW 13:31:05 10° SW daylight
01 Feb - 02:10:29 10° SSW 02:15:08 59° ESE 02:20:17 10° NE night (unlit)
01 Feb - 03:53:56 10° W 03:57:43 21° NW 04:01:44 10° N visible
01 Feb - 09:11:34 10° NNE 09:13:05 11° NE 09:14:35 10° NE daylight
01 Feb - 10:50:59 10° NNW 10:56:38 47° NE 11:02:19 10° SE daylight
01 Feb - 12:33:32 10° NW 12:38:32 29° WSW 12:43:32 10° SSW daylight
02 Feb - 01:21:38 10° SSE 01:25:40 28° ESE 01:30:00 10° NE night (unlit)
02 Feb - 03:03:01 10° WSW 03:07:32 37° NW 03:12:28 10° NNE visible
02 Feb - 10:01:36 10° N 10:06:33 27° NE 10:11:33 10° ESE daylight
02 Feb - 11:43:15 10° NW 11:49:00 56° WSW 11:54:45 10° S daylight
03 Feb - 00:34:12 10° SE 00:36:23 13° ESE 00:38:38 10° ENE night (unlit)
03 Feb - 02:12:49 10° SW 02:17:36 73° WNW 02:22:54 10° NNE night (unlit)
03 Feb - 03:58:16 10° WNW 04:00:46 13° NW 04:03:22 10° N visible
03 Feb - 09:12:34 10° N 09:16:16 17° NE 09:20:01 10° E daylight
03 Feb - 10:53:22 10° NNW 10:59:17 80° ENE 11:05:12 10° SSE daylight
03 Feb - 12:37:15 10° WNW 12:40:42 16° WSW 12:44:09 10° SW daylight
